Location: Warwick
(41.7000°N, 71.4170°W)
Time: 12:15:52
(UTC-04:00)

Envisat - Visible Passes

Search period start: 20 October 2017 00:00
Search period end: 30 October 2017 00:00
Orbit: 764 x 766 km, 98.2° (Epoch: 20 October)

Date Brightness Start Highest point End Pass type
(mag) Time Alt. Az. Time Alt. Az. Time Alt. Az.
20 Oct 3.9 19:58:34 33° NNE 19:58:34 33° NNE 20:01:48 10° N visible
20 Oct 5.6 21:38:47 16° NW 21:38:47 16° NW 21:40:13 10° NW visible
21 Oct 4.4 19:21:35 19° NE 19:21:35 19° NE 19:24:17 10° NNE visible
21 Oct 4.8 21:01:48 27° NW 21:01:48 27° NW 21:04:14 10° NNW visible
22 Oct 4.1 20:24:49 33° N 20:24:49 33° N 20:27:36 10° N visible
23 Oct 4.2 19:47:50 26° NNE 19:47:50 26° NNE 19:50:32 10° N visible
23 Oct 5.5 21:28:03 17° NW 21:28:03 17° NW 21:29:25 10° NW visible
24 Oct 4.7 19:10:51 15° NE 19:10:51 15° NE 19:12:45 10° NNE visible
24 Oct 4.8 20:51:04 25° NNW 20:51:04 25° NNW 20:53:12 10° NNW visible
25 Oct 4.4 20:14:04 27° N 20:14:04 27° N 20:16:27 10° N visible
26 Oct 4.5 19:37:05 20° NNE 19:37:05 20° NNE 19:39:12 10° N visible
26 Oct 5.5 21:17:18 17° NW 21:17:18 17° NW 21:18:32 10° NNW visible
27 Oct 4.9 19:00:05 12° NE 19:00:05 12° NE 19:01:01 10° NNE visible
27 Oct 4.9 20:40:18 23° NNW 20:40:18 23° NNW 20:42:08 10° NNW visible
28 Oct 4.6 20:03:19 22° N 20:03:19 22° N 20:05:14 10° N visible
29 Oct 4.8 19:26:19 16° NNE 19:26:19 16° NNE 19:27:49 10° NNE visible
29 Oct 5.4 21:06:31 16° NNW 21:06:31 16° NNW 21:07:34 10° NNW visible
